Regional Weather Roundup
Issued by NWS

Home | Current Version | Previous Version | Graphics & Text | Print | Product List | Glossary On
Versions: 1 2 3 4 5 6 7 8 9 10 11 12 13 14 15 16 17 18 19 20 21 22 23 24 25 26 27 28 29 30 31 32 33 34 35 36 37 38 39 40 41 42 43 44 45 46 47 48 49 50
300
ASUS44 KJAN 312203
RWRMS

MISSISSIPPI HOURLY WEATHER ROUNDUP
NATIONAL WEATHER SERVICE JACKSON MS
500 PM CDT THU JUL 31 2014

NOTE: "FAIR: INDICATES FEW OR NO CLOUDS BELOW 12,000 FEET WITH NO
SIGNIFICANT WEATHER AND/OR OBSTRUCTIONS TO VISIBILITY.

MSZ001>002-007>008-010>013-018>021-025>028-034>036-312300-
NORTHWEST MISSISSIPPI

CITY           SKY/WX    TMP DP  RH WIND       PRES   REMARKS
CLARKSDALE     CLOUDY    77  66  69 N7        30.07S
CLEVELAND      CLOUDY    78  69  76 CALM      30.04F
GREENWOOD      PTSUNNY   81  65  58 NE5       30.04S
GREENVILLE     RAIN      75  69  81 W6        30.05S
GRENADA        CLOUDY    79  63  57 NE3       30.05F
OLIVE BRANCH   PTSUNNY   75  70  83 N7        30.07F
OXFORD         FAIR      77  63  61 N3        30.08S
TUNICA         MOCLDY    77  64  65 N6        30.07F
$$

MSZ003>006-009-014>017-022>024-029>033-037>039-312300-
NORTHEAST MISSISSIPPI

CITY           SKY/WX    TMP DP  RH WIND       PRES   REMARKS
BELMONT        MOCLDY    79  65  61 E3        30.06F
COLUMBUS AFB   MOSUNNY   82  58  43 NE7       30.05F
CORINTH        FAIR      81  61  50 E3        30.06F
GOLDN TRIANGLE MOSUNNY   81  59  47 NE7       30.06S
STARKVILLE     FAIR      81  59  47 E3        30.05S
TUPELO         PTSUNNY   82  60  47 VRB5      30.05S
$$

MSZ040-058-312300-
CENTRAL MISSISSIPPI

CITY           SKY/WX    TMP DP  RH WIND       PRES   REMARKS
JACKSON INTL   CLOUDY    83  60  45 N5        30.03F
JACKSON HAWKNS CLOUDY    82  62  50 CALM      30.04S
MERIDIAN KEY   NOT AVBL
MERIDIAN NAS   PTSUNNY   84  61  45 NE7       30.03F
RAYMOND        FAIR      81  75  83 CALM      30.04S
VICKSBURG      CLOUDY    81  65  58 NE5       30.03F
$$

MSZ059>079-312300-
SOUTH MISSISSIPPI

CITY           SKY/WX    TMP DP  RH WIND       PRES   REMARKS
BROOKHAVEN     FAIR      79  63  57 CALM      30.06S
COLUMBIA       FAIR      82  64  54 N7        30.01F
HATTIESBURG    CLOUDY    83  64  52 N7        30.02F
MCCOMB         CLOUDY    83  62  49 NE5       30.02F
NATCHEZ        CLOUDY    79  68  69 NE8       30.03S
PINE BELT      CLOUDY    81  61  50 NW3       30.04F
$$

MSZ080>082-312300-
COASTAL MISSISSIPPI

CITY           SKY/WX    TMP DP  RH WIND       PRES   REMARKS
BAY ST LOUIS   MOSUNNY  N/A N/A N/A CALM      29.98F
BILOXI         SUNNY     85  63  47 SW8       29.99S
PASCAGOULA     MOSUNNY   88  61  40 E6        29.98F
GULFPORT       MOSUNNY   88  62  41 VRB3      29.98F
$$



USA.gov is the U.S. government's official web portal to all federal, state and local government web resources and services.